Location: Juzet
(42.9779°N, 0.7597°E)
Time: 18:19:33
(UTC+00:00)

Cosmos 972 Rocket - Pass Details

Date: 14 July 2020
Orbit: 713 x 1151 km, 75.8° (Epoch: 12 August)

Event Time Altitude Azimuth Distance (km) Brightness Sun altitude
Rises 00:35:50 0° 340° (NNW) 3,611 8.4 -24.9°
Reaches altitude 10° 00:38:29 10° 338° (NNW) 2,594 7.5 -24.9°
Maximum altitude 00:44:18 67° 257° (WSW) 898 4.1 -24.7°
Enters shadow 00:44:50 63° 223° (SW) 917 4.1 -24.7°
